Погода в Липецке

Погода в Липецке : погода сейчас, прогноз погоды и архив. Всё, что Вы хотите узнать о погоде в Липецке!

Хотите узнать прогноз погоды в Липецке? Тогда Вам сюда: Погода в Липецке

Поиск расширенной информации на нашем сайте:

Другие новости

Новости СМИ2

Главная страница сайта

Новости сайта

03.07.2017

Напоминаем, что на нашем специализированном сайте Метеоцентр.Азия вы можете получить высокодетализированные автоматические прогнозы погоды по пунктам России, СНГ и мира в авиационном формате (включающие направление и скорость ветра, видимость, явления погоды, количество и форму облачности, нижнюю и верхнюю границу облачности).


Погода в Липецке - сегодня

Время (UTC), дата Ветер
(°,м/с) 
Видим.   Явления Облачность Т
(°С)
Тd
(°С)
f(%) Тe
(°С)
Pmin
(гПа)
dP
(гПа)
Po
(мм)
O2
(г/м3)
Тmin Tmax R s Состояние
почвы
15 18.04.18 300 (СЗ) 8-11{13}  10 км  {ливн. осадки}  9/9 1350 м 
[Sc]
+8.5 +6.4 87 +6  1009.7  0.2  741  289    +12     
21 18.04.18 280 (З) 6{10}  10 км    5/0 средняя 
[Ac trans]
+6.9 +3.6 79 +5  1007.4  -2.2  740  290           
03 19.04.18 280 (З) 6{10}  10 км  слаб. ливневой дождь  10/10 330 м кучево-дожд. 
[Cb calv]
+5.4 +4.2 92 +3  1002.1  -3.2  736  290  +5.3       
15 19.04.18 360 (С) 10 км  {ливн. осадки}  10/10 630 м кучево-дожд. 
[Cb calv]
+7 +5.5 90 +4  999.4  1.2  734  287    +7.9     
03 20.04.18 360 (С) 9-12{12}  10 км  {ливн. осадки}  10/10 720 м кучево-дожд. 
[Cb calv]
+7 +5.5 90 +4  1004.6  737  289  +5.7    0.6     
15 20.04.18 360 (С) 9-13{16}  10 км    4/0 средняя, верхняя 
[Ac trans|Ci fib]
+13.3 +0.2 41 +12  1011.3  0.7  743  285    +14.3       
18 20.04.18 310 (СЗ) 2{14}  10 км    4/0 верхняя 
[Ci fib]
+8.1 +0.9 60 +8  1012.8  1.2  744  291           
21 20.04.18 020 (С) н/о    н/о 
-1    1.1  744  300           
00 21.04.18 260 (З) 10 км    9/0 средняя 
[Ac trans]
+4.8 +1.2 77 +4  1012.1  -0.9  743  294           
03 21.04.18 250 (З) 10 км    9/0 средняя, верхняя 
[Ac trans|Ci fib]
+5.6 +1.3 74 +4  1010.6  -1.5  742  293  +4.2        сухая 
06 21.04.18 250 (З) 10 км    10/0 средняя 
[Ac As]
+11.2 +1.1 50 +10  1008.1  -1.9  740  286           
15 21.04.18 210 (ЮЗ) 13-15{17}  10 км    8/4 1500 м верхняя 
[Sc|Ci fib]
+19 +4.1 37 +18  995.1  -4.6  731  275    +19.9       
18 21.04.18 230 (ЮЗ) 10  10 км    8/4 1000 м кучево-дожд., средняя, верхняя 
[Cb calv|Ac trans|Ci fib]
+16.5 +5.3 47 +16  992.4  -2.7  729  276           
03 22.04.18 290 (З) 8-10{14}  10 км    4/3 1000 м средняя 
[Sc|Ac trans]
+6.5 +0.7 66 +4  995.8  1.2  731  287  +5.5    0.0     
15 22.04.18 360 (С) 8-11{13}  10 км    9/5 1000 м кучево-дожд., средняя, верхняя 
[Cb calv|Ac trans|Ci fib]
+8 -1.9 50 +5  1001.2  2.1  735  288    +11.3       
18 22.04.18 010 (С) 5{11}  10 км    9/4 1500 м средняя 
[Sc|Ac trans]
+3.3 -1.8 69 +1  1005.4  3.6  738  294           
03 23.04.18 300 (СЗ) 10 км    6/0 средняя 
[Ac trans]
-0.9 -2.8 87 -3  1009.9  1.5  741  300  -1.2        сухая 
15 23.04.18 320 (СЗ) 7-10{14}  10 км    3/1 1500 м средняя 
[Cu hum|Ac trans]
+7.8 -10.7 26 +6  1011.7  0.6  743  292    +8.1       
18 23.04.18 290 (З) 2{10}  10 км    ясно 
+2.4 -7.1 49 +2  1013.6  1.5  744  298           
21 23.04.18 270 (З) 10 км    ясно 
+0.8 -7.8 53 1014.3  0.5  744  300           
00 24.04.18 250 (З) 10 км    ясно 
-2.4 -6.8 72 -5  1015  0.3  744  303           
06 24.04.18 280 (З) 10 км    ясно 
+6.6 -5.6 41 +6  1015.4  0.4  745  294           
09 24.04.18 300 (СЗ) 10 км    5/1 1500 м верхняя 
[Cu hum|Ci fib]
+10.7 -11.2 20 +10  1014.7  -0.4  745  290           
18 24.04.18 200 (Ю) 10 км    10/0 средняя, верхняя 
[Ac trans|Cs]
+8.4 -3 44 +8  1012.3  -0.3  743  291           
21 24.04.18 300 (СЗ) 10 км    10/0 средняя 
[Ac As]
+7.9 -1.7 51 +8  1012  -0.4  743  291           
Время (UTC), дата Ветер
(°,м/с) 
Видим.   Явления Облачность Т
(°С)
Тd
(°С)
f(%) Тe
(°С)
Pmin
(гПа)
dP
(гПа)
Po
(мм)
O2
(г/м3)
Тmin Tmax R s Состояние
почвы

Для получения пояснительной информации подведите курсор к названию столбца.

ПОГОДА в Липецке - архив

Всё, что Вы хотите узнать о погоде в Липецке - удобно и подробно!

Выберите нужную дату (начиная с 1 января 2015* года) и нажмите кнопку "Найти".
Будут отображены архивные сводки погоды по пункту Липецк, начиная с указанной даты.


Отображать данные в формате CSV (для использования в таблицах Excel)


Внимание! Наш архив погоды предназначен исключительно для личного некоммерческого использования в познавательных целях. Если Вам необходимы официальные справки о состоянии погоды (для производственных, юридических, коммерческих и т.п. целей), обращайтесь в органы Росгидромета.

*Примечание: данная дата относится к архиву по метеостанциям СССР (Россия, СНГ, Балтия).
Архив по метеостанциям Зарубежной Европы и Азии (кроме Китая) хранится 10 дней, по другим регионам земного шара (Китай, Африка, Америка, Австралия, Океания) - 1 день.

Липецк - район местоположения метеостанции


Название, широта, долгота, высота метеостанции:
Липецк 52.7°ш. 39.5°д. 177 м над ур. моря [Российская Федерация]

Дополнительная информация

В oтличие oт бoльшинства пoгoдных сайтoв мы публикуем пoдрoбную метеoинфoрмацию в детальнoм прoфессиoнальнoм фoрмате.

Характеристики температуры и влажнoсти вoздуха измеряются на высoте 2 м в тени вдали oт зданий и деревьев.
Скoрoсть ветра измеряется на высoте 10 м (на урoвне рoста челoвека скoрoсть ветра ниже в 1.5-2 раза). Если метеoстанция нахoдится в гoрoде или в лесу, тo скoрoсть ветра занижена на 2-4 м/с пo сравнению с oткрытым местoм. Скoрoсть ветра над акватoриями крупных рек и oзёр, а также на вершинах хoлмoв на 2-5 м/с выше, чем в oбычных услoвиях.
Атмoсфернoе давление в разных тoчках местнoсти мoжет значительнo oтличаться oт давления на метеoстанции, в зависимoсти oт услoвий рельефа (при пoдъёме на 10 м давление пoнижается примернo на 1 мм рт.ст.).